Location: Unspecified
(22.6800°N, 112.2000°E)
Time: 19:51:00
(UTC+08:00)

Transit 2A Rocket - Visible Passes

Search period start: 03 August 2021 00:00
Search period end: 13 August 2021 00:00
Orbit: 589 x 913 km, 66.7° (Epoch: 02 August)

Date Brightness Start Highest point End Pass type
(mag) Time Alt. Az. Time Alt. Az. Time Alt. Az.
03 Aug 7.9 22:34:27 10° NNE 22:34:43 11° NNE 22:34:43 11° NNE visible
04 Aug 8.1 23:32:45 10° NNW 23:33:00 11° NNW 23:33:00 11° NNW visible
05 Aug 7.7 22:50:19 10° N 22:51:26 16° N 22:51:26 16° N visible
06 Aug 7.4 22:08:19 10° N 22:09:55 17° NNE 22:09:55 17° NNE visible
07 Aug 7.4 21:27:04 10° NNE 21:28:27 13° NE 21:28:27 13° NE visible
07 Aug 7.9 23:07:28 10° NNW 23:08:21 15° NW 23:08:21 15° NW visible
08 Aug 7.2 22:24:46 10° NNW 22:26:56 24° NNW 22:26:56 24° NNW visible
09 Aug 6.7 21:42:28 10° N 21:45:34 28° NNE 21:45:34 28° NNE visible
10 Aug 6.8 21:00:40 10° N 21:04:15 22° NE 21:04:15 22° NE visible
10 Aug 7.5 22:42:22 10° NW 22:44:10 19° NW 22:44:10 19° NW visible
11 Aug 7.2 20:19:58 10° NE 20:22:22 12° ENE 20:23:01 12° ENE visible
11 Aug 6.5 21:59:23 10° NNW 22:02:55 38° NW 22:02:55 38° NW visible
12 Aug 5.6 21:16:49 10° NNW 21:21:45 54° NNE 21:21:45 54° NNE visible
